Precipitable_Water
0.53 0.51 0.51 0.46 0.24 0.27 0.24 0.26 0.29 0.26 0.26 0.32 0.32 0.26 0.22 0.29 0.23 0.18 0.71 0.74 0.70 0.71 0.80 0.76 0.79 0.81 0.77 0.83 0.79 0.86 0.80 0.79 0.80 0.81 0.79 0.76 0.75 0.72 0.72 0.72 0.70 0.65 0.63 0.66 0.71 0.77 0.85 0.90 0.95
0.51 0.47 0.44 0.34 0.18 0.16 0.19 0.25 0.24 0.27 0.29 0.28 0.25 0.24 0.22 0.24 0.46 0.54 0.59 0.73 0.75 0.73 0.75 0.71 0.79 0.76 0.80 0.80 0.80 0.80 0.78 0.77 0.78 0.75 0.75 0.73 0.70 0.69 0.69 0.68 0.68 0.64 0.59 0.62 0.70 0.77 0.86 0.91 0.92
0.45 0.47 0.30 0.21 0.18 0.14 0.18 0.25 0.26 0.29 0.33 0.25 0.23 0.29 0.26 0.24 0.46 0.52 0.67 0.75 0.77 0.69 0.68 0.71 0.76 0.77 0.79 0.80 0.79 0.78 0.80 0.75 0.73 0.71 0.70 0.68 0.66 0.64 0.63 0.64 0.65 0.63 0.58 0.61 0.69 0.77 0.84 0.87 0.91
0.36 0.32 0.27 0.16 0.12 0.20 0.23 0.25 0.27 0.28 0.29 0.28 0.26 0.21 0.31 0.39 0.48 0.58 0.72 0.77 0.73 0.69 0.67 0.72 0.78 0.79 0.80 0.82 0.78 0.79 0.78 0.73 0.70 0.69 0.67 0.65 0.63 0.61 0.59 0.58 0.61 0.61 0.56 0.60 0.69 0.77 0.79 0.83 0.88
0.36 0.24 0.12 0.11 0.13 0.20 0.25 0.27 0.27 0.23 0.23 0.24 0.23 0.21 0.29 0.47 0.59 0.66 0.69 0.73 0.70 0.67 0.67 0.73 0.74 0.77 0.79 0.79 0.78 0.77 0.75 0.68 0.67 0.64 0.62 0.62 0.59 0.57 0.55 0.55 0.56 0.58 0.55 0.57 0.67 0.74 0.78 0.82 0.84
0.22 0.24 0.12 0.10 0.13 0.20 0.24 0.25 0.24 0.22 0.21 0.22 0.23 0.25 0.30 0.53 0.58 0.67 0.72 0.69 0.74 0.69 0.65 0.70 0.73 0.77 0.78 0.75 0.74 0.73 0.66 0.60 0.59 0.58 0.58 0.58 0.56 0.54 0.52 0.51 0.51 0.55 0.54 0.54 0.61 0.71 0.76 0.79 0.80
0.21 0.17 0.13 0.14 0.15 0.18 0.22 0.26 0.23 0.22 0.21 0.20 0.25 0.20 0.32 0.49 0.63 0.72 0.75 0.76 0.74 0.70 0.64 0.66 0.71 0.75 0.73 0.69 0.66 0.64 0.57 0.52 0.50 0.47 0.49 0.48 0.48 0.49 0.51 0.51 0.50 0.50 0.54 0.54 0.60 0.62 0.68 0.69 0.73
0.29 0.23 0.17 0.17 0.15 0.17 0.24 0.24 0.25 0.24 0.23 0.30 0.29 0.20 0.25 0.48 0.67 0.75 0.76 0.75 0.73 0.71 0.67 0.64 0.66 0.66 0.64 0.62 0.56 0.52 0.50 0.47 0.42 0.38 0.39 0.40 0.40 0.43 0.46 0.50 0.52 0.53 0.53 0.56 0.53 0.55 0.54 0.58 0.61
0.33 0.18 0.15 0.17 0.18 0.19 0.25 0.23 0.26 0.28 0.25 0.27 0.30 0.28 0.33 0.56 0.69 0.69 0.67 0.68 0.69 0.69 0.68 0.64 0.60 0.61 0.59 0.50 0.48 0.47 0.46 0.42 0.38 0.35 0.32 0.31 0.34 0.37 0.41 0.50 0.53 0.53 0.48 0.48 0.49 0.45 0.42 0.44 0.49
0.20 0.14 0.14 0.21 0.24 0.23 0.26 0.25 0.25 0.24 0.24 0.24 0.28 0.34 0.48 0.58 0.61 0.59 0.58 0.59 0.64 0.64 0.66 0.64 0.57 0.54 0.50 0.42 0.42 0.39 0.36 0.34 0.32 0.31 0.31 0.30 0.31 0.35 0.40 0.48 0.49 0.45 0.42 0.42 0.41 0.35 0.32 0.36 0.41
0.20 0.15 0.21 0.22 0.24 0.26 0.26 0.26 0.26 0.23 0.20 0.22 0.23 0.31 0.46 0.52 0.56 0.56 0.58 0.61 0.61 0.66 0.67 0.66 0.59 0.54 0.43 0.38 0.37 0.35 0.35 0.34 0.33 0.31 0.30 0.30 0.30 0.33 0.34 0.35 0.36 0.31 0.29 0.29 0.29 0.27 0.25 0.26 0.32
0.19 0.23 0.24 0.24 0.25 0.23 0.21 0.22 0.20 0.21 0.21 0.25 0.27 0.34 0.42 0.45 0.47 0.51 0.54 0.59 0.60 0.62 0.64 0.65 0.58 0.50 0.38 0.38 0.36 0.35 0.34 0.34 0.33 0.32 0.32 0.32 0.33 0.36 0.37 0.36 0.34 0.30 0.28 0.25 0.25 0.24 0.24 0.25 0.30
0.22 0.22 0.24 0.25 0.23 0.21 0.22 0.20 0.19 0.19 0.23 0.26 0.30 0.36 0.38 0.42 0.46 0.54 0.59 0.62 0.62 0.61 0.63 0.62 0.57 0.46 0.40 0.38 0.38 0.36 0.34 0.34 0.34 0.33 0.33 0.34 0.34 0.37 0.40 0.38 0.36 0.33 0.32 0.29 0.27 0.26 0.25 0.25 0.27
0.23 0.21 0.22 0.23 0.21 0.21 0.19 0.20 0.21 0.20 0.23 0.23 0.27 0.30 0.37 0.40 0.44 0.51 0.55 0.57 0.61 0.63 0.63 0.63 0.58 0.49 0.41 0.38 0.38 0.36 0.34 0.34 0.34 0.34 0.34 0.35 0.36 0.39 0.41 0.37 0.36 0.35 0.33 0.32 0.31 0.31 0.30 0.30 0.31
0.23 0.18 0.20 0.20 0.20 0.20 0.23 0.16 0.15 0.21 0.24 0.22 0.26 0.31 0.36 0.41 0.47 0.48 0.53 0.56 0.61 0.63 0.64 0.62 0.58 0.51 0.42 0.38 0.39 0.38 0.34 0.34 0.33 0.34 0.35 0.36 0.37 0.39 0.40 0.38 0.38 0.40 0.38 0.37 0.36 0.35 0.34 0.34 0.37
0.20 0.21 0.14 0.21 0.23 0.23 0.21 0.10 0.16 0.21 0.21 0.21 0.24 0.28 0.32 0.38 0.46 0.52 0.55 0.59 0.64 0.64 0.62 0.63 0.59 0.52 0.43 0.38 0.40 0.39 0.35 0.33 0.34 0.35 0.36 0.37 0.39 0.40 0.41 0.40 0.42 0.45 0.42 0.38 0.35 0.34 0.33 0.35 0.36
0.21 0.13 0.14 0.18 0.26 0.24 0.20 0.12 0.16 0.22 0.20 0.20 0.22 0.24 0.28 0.34 0.42 0.50 0.55 0.60 0.62 0.63 0.62 0.59 0.57 0.52 0.45 0.39 0.41 0.41 0.36 0.33 0.35 0.36 0.37 0.38 0.40 0.42 0.42 0.43 0.44 0.45 0.42 0.36 0.34 0.34 0.34 0.33 0.34
0.14 0.15 0.17 0.18 0.23 0.24 0.20 0.16 0.19 0.21 0.20 0.20 0.21 0.23 0.25 0.30 0.34 0.44 0.52 0.60 0.63 0.63 0.63 0.61 0.58 0.55 0.49 0.42 0.42 0.42 0.38 0.35 0.36 0.37 0.37 0.39 0.41 0.43 0.43 0.44 0.44 0.44 0.41 0.37 0.37 0.36 0.38 0.38 0.38
0.19 0.18 0.17 0.19 0.23 0.21 0.18 0.16 0.17 0.20 0.20 0.20 0.21 0.22 0.23 0.26 0.34 0.42 0.49 0.57 0.61 0.62 0.61 0.59 0.56 0.55 0.50 0.42 0.37 0.38 0.35 0.35 0.35 0.38 0.39 0.40 0.42 0.44 0.45 0.44 0.43 0.42 0.41 0.39 0.39 0.40 0.39 0.41 0.44
0.20 0.18 0.18 0.21 0.24 0.21 0.18 0.16 0.18 0.19 0.18 0.19 0.20 0.22 0.23 0.26 0.29 0.36 0.45 0.52 0.56 0.58 0.59 0.58 0.57 0.56 0.52 0.43 0.39 0.40 0.40 0.39 0.37 0.39 0.40 0.41 0.43 0.44 0.45 0.45 0.43 0.43 0.42 0.43 0.42 0.42 0.42 0.45 0.49
0.20 0.18 0.19 0.18 0.22 0.23 0.19 0.14 0.14 0.18 0.20 0.21 0.21 0.23 0.25 0.27 0.28 0.33 0.39 0.47 0.54 0.55 0.57 0.57 0.57 0.56 0.53 0.44 0.42 0.43 0.44 0.42 0.38 0.38 0.39 0.41 0.43 0.44 0.45 0.46 0.46 0.45 0.45 0.45 0.46 0.46 0.44 0.43 0.47
0.17 0.23 0.22 0.21 0.18 0.13 0.20 0.10 0.13 0.15 0.16 0.19 0.21 0.22 0.24 0.28 0.31 0.35 0.38 0.44 0.51 0.54 0.58 0.58 0.58 0.56 0.53 0.46 0.41 0.39 0.37 0.35 0.38 0.37 0.39 0.41 0.43 0.44 0.45 0.47 0.48 0.48 0.48 0.47 0.47 0.48 0.47 0.45 0.43
0.19 0.25 0.22 0.20 0.17 0.16 0.14 0.12 0.11 0.16 0.15 0.17 0.20 0.24 0.27 0.29 0.31 0.34 0.38 0.44 0.51 0.55 0.56 0.57 0.57 0.55 0.52 0.47 0.43 0.40 0.39 0.41 0.42 0.42 0.40 0.40 0.42 0.44 0.46 0.46 0.48 0.49 0.50 0.50 0.49 0.49 0.49 0.48 0.46
0.27 0.23 0.22 0.21 0.18 0.11 0.12 0.12 0.10 0.12 0.15 0.18 0.22 0.26 0.28 0.30 0.33 0.37 0.42 0.47 0.50 0.55 0.56 0.56 0.55 0.54 0.52 0.48 0.44 0.42 0.41 0.42 0.42 0.42 0.40 0.40 0.41 0.42 0.43 0.44 0.46 0.47 0.48 0.48 0.48 0.49 0.48 0.48 0.47
0.24 0.18 0.11 0.10 0.10 0.09 0.17 0.13 0.11 0.17 0.21 0.23 0.24 0.27 0.30 0.33 0.34 0.35 0.38 0.42 0.47 0.51 0.53 0.54 0.54 0.52 0.52 0.50 0.47 0.45 0.45 0.46 0.45 0.45 0.44 0.42 0.41 0.41 0.41 0.43 0.43 0.44 0.46 0.47 0.48 0.47 0.47 0.47 0.46
0.20 0.16 0.11 0.07 0.07 0.11 0.19 0.11 0.14 0.23 0.26 0.28 0.29 0.30 0.33 0.34 0.35 0.35 0.37 0.40 0.44 0.48 0.51 0.53 0.53 0.51 0.52 0.51 0.48 0.48 0.49 0.49 0.49 0.50 0.49 0.48 0.46 0.45 0.46 0.45 0.45 0.45 0.45 0.46 0.47 0.47 0.47 0.47 0.47
0.21 0.16 0.21 0.15 0.16 0.12 0.13 0.15 0.19 0.22 0.25 0.28 0.30 0.33 0.34 0.36 0.39 0.39 0.40 0.41 0.44 0.47 0.49 0.50 0.51 0.51 0.51 0.51 0.51 0.51 0.51 0.52 0.51 0.52 0.53 0.53 0.53 0.51 0.50 0.49 0.47 0.47 0.47 0.47 0.48 0.48 0.48 0.49 0.50
0.24 0.25 0.15 0.16 0.10 0.10 0.13 0.14 0.15 0.22 0.27 0.31 0.32 0.33 0.35 0.38 0.40 0.43 0.45 0.47 0.48 0.49 0.50 0.54 0.55 0.55 0.55 0.55 0.55 0.54 0.55 0.56 0.56 0.56 0.54 0.55 0.55 0.55 0.53 0.51 0.50 0.49 0.50 0.50 0.49 0.49 0.50 0.50 0.51
0.24 0.22 0.23 0.22 0.19 0.13 0.13 0.15 0.28 0.27 0.30 0.31 0.34 0.36 0.38 0.39 0.41 0.43 0.46 0.49 0.51 0.53 0.54 0.54 0.54 0.54 0.54 0.56 0.57 0.58 0.58 0.59 0.59 0.57 0.57 0.58 0.59 0.58 0.56 0.54 0.51 0.50 0.50 0.51 0.51 0.50 0.50 0.50 0.50
0.30 0.27 0.27 0.20 0.19 0.23 0.21 0.19 0.34 0.34 0.31 0.32 0.33 0.35 0.38 0.40 0.41 0.41 0.42 0.44 0.46 0.47 0.48 0.48 0.49 0.50 0.53 0.56 0.56 0.56 0.57 0.57 0.57 0.57 0.58 0.60 0.59 0.60 0.58 0.56 0.54 0.53 0.51 0.53 0.51 0.50 0.51 0.51 0.50
Wind_Speed
4 4 4 3 2 1 3 3 2 2 1 2 2 2 3 2 3 4 8 9 11 10 9 8 7 7 6 5 5 4 3 2 2 2 2 2 2 3 3 3 4 4 4 5 5 6 6 7 8
5 5 4 4 3 3 6 5 5 4 3 3 1 1 0 2 4 6 7 10 11 10 9 8 7 7 6 5 5 4 3 2 1 1 1 1 2 2 2 2 3 3 3 3 4 5 5 6 7
6 5 5 5 5 6 6 6 5 3 4 3 2 1 3 3 4 9 7 10 11 10 9 8 7 7 6 5 4 4 2 1 1 0 1 1 1 1 1 1 1 2 3 3 3 4 4 5 5
6 6 6 6 7 8 7 7 6 5 6 4 4 2 3 4 7 7 11 10 10 10 9 9 8 7 6 5 4 3 2 1 0 1 1 2 2 2 1 1 0 1 1 2 3 3 3 4 4
6 6 6 6 8 9 8 8 9 8 7 7 6 5 4 5 6 9 11 11 10 9 10 9 8 7 6 5 4 3 2 2 1 1 1 1 2 2 1 1 1 0 1 1 2 2 2 3 3
6 7 6 8 8 8 8 8 9 9 9 9 7 7 7 7 8 10 11 10 10 10 10 10 9 8 7 6 5 4 3 2 2 2 2 2 1 1 1 1 2 2 1 1 1 1 1 2 2
7 7 9 8 8 8 9 9 10 10 10 10 10 9 9 9 10 11 11 10 10 10 11 11 10 9 8 7 6 5 5 4 3 2 2 2 1 1 1 1 2 2 2 2 2 1 1 0 0
8 7 8 9 9 9 9 9 9 10 11 11 12 11 11 13 12 12 12 11 11 11 11 11 11 10 10 9 8 7 6 6 5 4 3 3 3 2 2 2 2 2 3 3 3 3 2 1 1
8 7 9 10 8 10 10 9 9 10 10 12 13 13 12 14 14 13 12 12 11 11 12 12 12 12 11 10 9 8 8 7 6 5 4 4 3 3 3 3 3 3 3 3 3 3 3 3 2
7 8 11 10 10 10 10 10 10 10 10 12 13 13 12 14 15 15 14 14 13 13 12 13 13 13 12 12 11 10 9 8 7 6 5 4 4 3 3 3 3 3 3 3 3 3 3 3 3
8 9 9 9 9 9 10 10 10 9 12 12 13 13 13 15 15 16 16 16 15 14 14 14 14 14 14 13 12 11 10 9 8 7 6 5 4 3 3 3 3 3 3 3 3 3 3 3 3
7 8 8 7 8 9 10 10 10 11 11 10 11 12 13 14 15 16 15 15 15 15 15 15 15 14 14 14 13 12 11 10 9 8 7 6 5 5 4 3 3 3 2 2 3 3 3 3 3
8 7 7 7 7 7 7 8 9 9 8 7 8 10 12 12 13 14 14 15 15 15 15 15 15 15 15 15 14 13 12 11 10 9 8 7 6 6 5 4 3 3 3 2 2 3 3 3 4
7 6 6 6 6 6 6 7 6 5 5 5 7 9 11 11 12 12 14 14 15 15 15 15 14 15 15 15 14 13 12 12 11 10 9 8 7 6 6 5 4 3 3 2 2 2 2 3 3
7 7 7 8 7 6 6 8 8 7 6 7 8 8 10 11 12 13 14 15 15 15 15 15 15 15 15 15 14 13 13 12 12 11 10 9 8 7 7 6 5 4 4 3 3 2 2 2 2
8 7 7 7 7 7 6 8 5 6 7 8 9 9 10 11 13 13 14 14 15 15 15 15 15 15 15 15 15 14 13 13 12 12 11 10 9 9 8 8 7 6 5 5 4 4 4 3 3
9 9 9 8 9 7 7 8 6 6 8 10 10 11 11 12 13 13 14 15 15 15 15 15 15 15 15 15 15 14 14 14 13 13 12 12 11 11 10 9 9 8 7 6 6 6 5 5 5
12 11 10 10 9 9 9 13 11 9 10 12 12 12 12 12 14 13 14 15 16 16 16 16 16 16 16 15 15 15 14 14 14 14 14 13 13 12 12 11 11 10 9 9 8 8 7 7 6
11 12 11 11 11 11 13 15 15 13 13 15 15 15 15 15 14 14 15 16 16 17 17 17 16 16 16 16 16 16 16 15 15 15 15 15 15 14 14 13 13 13 12 12 11 10 10 9 9
14 14 15 13 13 13 13 16 17 15 15 16 18 18 17 16 16 16 16 17 18 18 18 18 18 17 18 18 18 17 17 17 17 17 17 17 16 16 16 16 15 15 15 14 14 14 13 13 14
14 15 15 15 14 14 15 17 15 12 12 13 15 17 18 18 17 17 17 18 19 19 20 19 19 19 19 19 19 18 18 17 18 18 18 18 18 18 18 18 17 17 16 17 17 17 16 16 17
15 14 14 14 14 16 13 16 15 15 15 14 14 15 16 17 17 17 17 18 20 20 20 20 20 20 20 20 20 20 20 19 19 20 19 19 19 19 19 19 19 19 18 18 18 18 18 18 17
15 13 13 13 13 14 15 14 17 15 14 15 15 14 14 16 16 17 18 19 20 21 22 22 22 22 22 22 22 22 22 21 20 21 21 21 21 21 20 20 20 20 19 19 19 19 19 19 20
12 11 12 13 14 15 17 15 18 15 15 15 14 13 13 13 14 15 16 18 19 21 22 23 23 23 23 24 24 24 24 24 23 23 23 23 23 23 22 22 21 21 21 20 20 20 20 20 20
12 11 13 13 13 16 14 13 18 14 13 13 12 12 13 13 14 15 16 17 18 20 22 23 24 25 25 25 26 26 26 26 26 26 26 25 25 25 25 24 24 24 23 22 22 22 22 22 21
14 13 13 14 13 14 12 16 15 13 13 13 13 13 13 13 15 16 17 18 19 21 22 24 25 26 27 28 28 29 29 29 29 29 28 28 28 27 27 27 26 26 25 24 24 23 23 23 22
13 14 13 12 15 15 17 18 17 15 14 14 14 14 14 15 15 16 17 19 20 21 22 24 26 27 28 29 29 30 30 31 31 31 31 31 30 30 30 29 29 28 28 27 26 26 25 24 24
13 13 12 14 14 16 17 17 16 16 16 15 14 14 15 15 15 16 16 17 19 21 23 24 26 27 28 29 30 31 32 32 33 33 33 33 33 33 32 32 31 31 30 29 28 27 26 26 25
14 15 14 14 14 15 16 18 16 15 15 15 15 14 14 15 16 16 17 19 20 21 23 24 26 27 29 30 31 32 33 33 34 35 35 35 35 35 34 34 33 32 32 32 30 29 28 27 27
15 16 16 15 18 16 16 20 18 17 16 15 16 17 18 19 20 21 22 23 24 26 27 28 29 30 31 32 32 33 34 35 36 36 36 36 36 36 35 35 35 34 34 34 33 32 31 30 29
Wind_Direction
216 216 204 203 220 239 241 236 226 196 240 288 226 202 180 174 178 189 170 173 169 169 166 163 162 160 158 154 154 146 139 128 109 86 62 48 44 39 40 42 42 46 51 58 61 64 64 65 61
222 215 218 226 238 240 250 245 214 226 207 164 145 214 192 205 192 172 164 175 172 172 170 168 167 166 167 166 166 160 156 145 119 72 38 22 18 20 26 37 42 46 49 58 64 66 70 66 63
225 226 236 236 238 231 238 232 218 226 194 248 222 221 216 212 201 178 185 173 175 176 176 176 174 171 169 169 172 172 171 180 206 288 322 331 339 342 347 17 42 51 54 62 72 76 73 69 66
231 242 255 250 247 250 242 225 228 219 245 249 232 237 225 228 184 198 178 178 180 183 184 183 182 179 178 176 175 179 184 194 236 296 309 307 309 312 304 276 348 46 58 74 81 84 78 72 66
239 248 257 259 257 257 248 232 228 240 246 248 243 237 238 218 215 186 185 187 187 192 193 193 193 193 191 190 192 195 205 227 254 289 309 323 322 303 287 252 230 208 88 103 101 96 86 72 67
249 248 260 256 257 252 251 239 245 249 249 241 247 239 237 230 203 196 193 195 200 203 201 202 202 204 204 206 210 216 224 237 259 272 288 300 316 325 299 257 234 227 210 168 142 130 108 77 67
241 251 252 255 260 253 248 249 248 247 247 251 234 240 245 225 211 203 202 206 209 209 208 211 211 213 216 219 224 229 234 242 253 262 270 285 297 304 291 271 243 232 228 215 210 211 213 136 80
246 254 250 260 253 257 252 255 255 254 254 246 247 242 241 227 211 208 212 215 217 217 216 217 219 221 222 225 230 234 239 245 247 254 259 267 273 276 278 269 250 241 237 233 232 232 236 227 223
249 260 258 259 251 258 258 258 263 264 255 253 251 245 249 213 211 213 216 219 220 222 223 223 222 222 225 229 232 236 240 242 244 250 255 260 265 265 264 265 256 250 245 239 236 237 235 233 229
251 255 254 258 261 259 256 259 256 264 262 257 252 249 227 215 216 217 219 222 225 225 227 226 224 225 229 231 236 239 240 241 244 246 247 251 256 258 255 252 255 251 245 239 236 232 233 235 235
254 253 255 258 260 260 258 263 264 261 264 255 247 236 224 218 221 221 224 224 227 228 230 230 230 230 231 233 236 238 238 239 239 240 241 243 246 249 254 253 251 249 245 237 233 231 233 233 233
259 259 256 258 262 261 260 266 266 257 264 267 247 225 221 219 220 220 222 225 226 228 231 232 231 230 230 232 234 236 235 235 236 235 236 240 243 246 250 249 245 240 235 233 232 232 232 234 235
253 255 257 262 261 263 265 264 263 264 261 254 230 221 218 219 221 223 223 224 225 228 230 231 230 231 230 231 233 233 233 233 233 234 236 238 241 242 239 238 231 231 228 231 235 236 239 242 243
247 248 258 261 260 263 262 263 263 267 245 235 219 221 221 221 220 223 225 226 226 228 229 230 231 231 229 230 229 230 231 231 232 233 234 235 236 232 231 230 226 225 222 221 227 236 240 248 248
246 256 263 257 257 261 262 265 257 254 245 227 227 227 228 229 227 227 229 228 227 230 230 230 230 229 228 226 225 228 229 230 231 232 233 232 233 230 228 225 224 225 225 224 225 231 240 249 255
249 259 264 260 247 260 255 265 269 243 229 232 232 235 235 236 235 235 234 231 229 229 228 229 229 229 227 227 227 228 230 231 232 232 231 231 232 230 227 227 229 231 232 232 237 243 248 257 264
258 250 249 266 244 252 251 263 273 249 240 241 241 242 243 243 243 242 237 232 229 228 227 227 228 229 229 227 228 230 231 232 232 232 231 232 233 232 231 232 233 235 236 238 241 248 253 256 265
241 246 253 255 252 251 255 261 268 263 249 249 249 248 248 247 245 244 238 234 232 231 230 229 229 230 230 229 230 232 232 234 234 233 233 234 235 235 235 236 238 238 241 244 248 251 257 261 266
240 247 253 256 257 256 257 265 270 263 256 256 252 251 252 251 252 248 241 236 234 233 231 230 230 231 231 231 232 234 235 235 236 236 236 237 238 238 239 240 241 243 247 248 249 254 256 262 267
245 249 255 262 257 258 268 269 269 264 263 260 257 255 254 254 250 248 244 238 235 234 232 232 233 234 235 235 236 238 237 239 239 239 239 240 240 241 242 243 245 246 248 250 252 254 259 265 270
249 248 253 256 262 266 275 272 272 267 267 274 270 263 254 251 248 247 244 240 238 236 234 234 236 238 238 237 238 239 239 240 241 242 242 243 243 244 244 245 246 248 250 252 254 257 261 266 272
251 254 257 258 262 261 269 267 267 270 274 278 281 272 255 249 249 248 244 242 240 238 237 237 239 240 241 239 240 240 242 243 245 244 244 244 245 245 246 247 247 249 251 254 256 259 262 266 268
255 258 260 262 261 268 266 270 267 272 273 277 282 277 264 253 247 246 248 244 243 241 239 241 242 243 243 242 242 242 244 245 247 246 246 247 247 247 247 247 248 250 252 254 257 259 262 265 268
246 259 270 268 266 270 265 260 273 270 269 272 274 272 267 256 251 251 252 249 246 244 243 244 243 245 245 245 245 245 246 247 247 247 248 248 249 248 248 248 249 251 253 255 258 260 263 266 268
254 258 270 275 271 262 264 267 265 273 272 267 267 268 268 262 256 254 253 250 248 246 246 245 245 246 248 248 247 247 249 249 249 249 249 249 250 250 250 250 251 252 253 256 258 261 263 265 267
249 248 250 256 261 270 265 263 270 269 270 271 268 267 266 266 263 259 257 255 254 251 250 249 250 251 252 251 250 251 252 252 252 251 252 252 252 252 250 250 251 252 254 256 258 261 263 264 266
251 253 254 261 272 275 268 274 272 268 271 272 272 269 269 269 268 265 261 258 257 255 254 253 254 254 254 253 252 253 253 253 253 253 254 253 252 252 251 251 252 253 254 255 258 261 262 263 264
253 252 263 270 268 270 274 274 270 267 265 266 270 271 271 271 271 269 266 265 262 259 259 259 258 257 256 255 255 255 255 254 253 254 254 253 253 252 252 252 252 253 254 254 257 259 261 262 263
258 262 264 260 262 262 274 274 274 265 261 259 262 267 270 274 275 273 272 270 268 267 266 264 262 260 260 258 257 257 256 255 254 255 254 253 253 252 252 252 252 253 254 254 255 257 259 261 262
260 258 257 260 266 268 268 274 280 273 266 263 264 271 273 275 276 277 277 276 274 272 270 269 267 265 263 261 259 258 258 257 257 256 254 252 252 252 252 251 252 252 253 253 254 256 258 260 261